Theta_e
341 340 341 343 342 342 343 343 346 348 346 346 346 347 347 346 346 345 345 345 344 338
341 338 340 344 343 342 344 346 346 349 348 347 348 347 345 345 343 343 345 344 343 344
341 339 340 344 344 342 342 346 348 347 346 347 346 347 346 345 344 343 345 344 341 343
342 343 345 344 343 341 344 343 343 343 342 345 346 347 347 345 344 342 342 343 343 342
342 344 345 344 344 340 344 341 339 337 338 345 346 347 346 346 347 343 343 343 343 343
341 342 343 343 346 344 344 342 341 339 340 346 347 347 347 347 347 347 345 345 343 343
341 342 342 343 343 344 342 340 338 340 345 348 348 348 347 348 346 346 345 345 344 344
342 342 342 343 344 344 345 345 345 345 343 341 340 337 339 342 346 343 344 340 338 336
340 340 338 338 340 340 341 342 340 339 335 334 333 325 328 332 341 342 340 335 332 332
340 339 338 339 339 338 340 337 332 328 327 326 323 321 320 328 338 340 336 332 326 325
337 337 337 337 336 338 340 330 326 324 326 325 323 322 321 329 337 333 330 324 320 321
336 335 335 331 327 325 326 323 318 316 316 320 322 319 325 329 326 321 319 316 314 315
336 335 331 328 323 319 315 312 312 311 314 314 317 318 321 322 318 313 313 313 314 316
335 334 332 328 324 319 316 315 315 313 311 310 311 317 316 316 318 316 315 314 316 315
Wind_Speed
8 5 5 5 4 4 4 4 4 5 5 4 3 2 3 2 2 2 3 5 3 3
6 6 6 6 4 4 4 3 5 5 6 6 5 5 2 2 2 2 2 3 2 3
7 6 6 5 6 6 5 4 5 6 6 6 5 5 5 2 2 2 2 2 2 1
6 6 5 5 6 5 4 4 6 6 6 6 5 4 5 5 4 3 3 2 3 3
6 6 6 6 6 6 6 5 6 5 5 5 5 5 5 5 5 4 4 5 4 4
7 6 6 6 6 6 6 6 5 6 6 6 6 6 6 6 6 5 4 3 2 3
7 7 7 6 5 5 5 5 5 6 5 5 5 5 4 5 5 4 2 2 2 1
6 5 5 6 6 6 6 6 5 3 3 2 3 2 2 4 5 6 5 4 4 4
6 6 4 1 1 2 3 4 5 4 4 4 2 3 3 5 3 4 5 5 3 4
7 7 6 6 5 6 4 2 3 4 5 5 2 3 1 2 3 3 4 5 4 3
6 5 6 4 2 4 4 4 5 4 3 3 2 4 2 7 3 4 4 5 5 5
7 6 4 5 5 3 6 4 4 4 4 3 2 6 10 9 8 7 5 5 5 4
7 7 6 5 5 5 5 6 4 4 5 4 2 6 12 12 7 7 4 5 4 7
8 9 9 6 6 7 6 6 5 4 4 5 6 5 12 11 7 7 5 4 0 3
Wind_Direction
175 182 201 194 188 199 202 205 201 200 198 203 208 243 177 176 191 227 156 155 177 177
178 180 195 196 189 199 213 224 222 207 202 201 194 206 221 203 227 208 187 150 186 189
189 191 193 183 196 202 218 225 225 204 197 202 210 192 184 224 238 236 234 201 188 211
193 189 192 186 195 196 213 218 212 200 199 201 210 215 193 198 224 231 233 225 217 230
186 195 195 205 201 189 202 200 206 205 218 220 208 205 209 211 209 215 225 226 226 233
189 192 211 216 203 185 208 222 208 206 216 220 219 197 201 212 219 222 233 252 241 266
187 192 203 212 218 208 196 222 236 214 218 214 208 203 204 207 215 196 171 136 122 70
166 171 179 194 202 212 195 199 213 192 159 151 128 54 317 227 211 165 144 123 112 94
144 129 135 192 142 17 292 195 179 160 160 151 140 154 231 287 220 176 145 140 101 76
142 139 160 185 192 202 189 135 156 157 156 160 167 290 279 163 256 149 148 136 119 76
149 164 153 144 107 81 138 139 150 151 166 164 137 276 195 143 151 93 95 122 125 116
129 123 124 97 75 65 77 96 100 85 59 11 304 17 120 103 94 81 63 56 56 82
119 126 116 108 118 75 94 89 59 82 80 62 42 27 124 110 115 98 89 45 34 32
141 139 127 109 102 112 112 109 115 94 71 59 29 80 96 101 116 127 116 121 118 63